EW1065 Weather Reports


Display with metric or nautical units.
time (UTC)temp
F
wind
direction
speed
MPH
gust
MPH
rain 1hr
in
rain 24hr
in
rain mn
in
humidity
%
barometer
mb
20260901143520 83 0.0 0.0 0.00 0.00 0.00 82 1020.2
20260901142558 81 0.0 0.0 0.00 0.00 0.00 84 1020.2
20260901141520 80 0.0 0.0 0.00 0.00 0.00 87 1020.1
20260901140520 78 0.0 0.0 0.00 0.00 0.00 91 1020.3
20260901135520 76 0.0 0.0 0.00 0.00 0.00 98 1020.2
20260901134520 75 0.0 0.0 0.00 0.00 0.00 100 1020.2
20260901133521 74 0.0 0.0 0.00 0.00 0.00 100 1020.2
20260901132520 73 0.0 0.0 0.00 0.00 0.00 100 1020.2
20260901131600 73 0.0 0.0 0.00 0.00 0.00 100 1020.2
20260901130520 72 0.0 0.0 0.00 0.00 0.00 100 1020.3
20260901125520 72 0.0 0.0 0.00 0.00 0.00 100 1020.3
20260901124518 71 0.0 0.0 0.00 0.00 0.00 100 1020.2
20260901123520 70 0.0 0.0 0.00 0.00 0.00 100 1020.2
20260901122520 69 0.0 0.0 0.00 0.00 0.00 100 1020.2
20260901121520 69 0.0 0.0 0.00 0.00 0.00 99 1020.3
20260901120520 68 0.0 0.0 0.00 0.00 0.00 99 1020.2
20260901115520 68 0.0 0.0 0.00 0.00 0.00 99 1020.0
20260901114520 67 0.0 0.0 0.00 0.00 0.00 99 1019.9
20260901113520 67 0.0 0.0 0.00 0.00 0.00 99 1019.7
20260901112520 67 0.0 0.0 0.00 0.00 0.00 99 1019.7
20260901111520 67 0.0 0.0 0.00 0.00 0.00 99 1019.5
20260901110518 67 0.0 0.0 0.00 0.00 0.00 99 1019.3
20260901105520 68 0.0 0.0 0.00 0.00 0.00 99 1019.2
20260901104600 68 0.0 0.0 0.00 0.00 0.00 99 1019.3
20260901103520 68 0.0 0.0 0.00 0.00 0.00 99 1019.2
20260901102520 68 0.0 0.0 0.00 0.00 0.00 99 1019.2
20260901101520 68 0.0 0.0 0.00 0.00 0.00 99 1019.1
20260901100520 68 0.0 0.0 0.00 0.00 0.00 99 1019.1
20260901095558 68 0.0 0.0 0.00 0.00 0.00 99 1018.9
20260901094520 68 0.0 0.0 0.00 0.00 0.00 99 1018.8
20260901093520 69 0.0 0.0 0.00 0.00 0.00 99 1018.7
20260901092520 69 0.0 0.0 0.00 0.00 0.00 99 1018.7
20260901091518 69 0.0 0.0 0.00 0.00 0.00 99 1018.6
20260901090600 69 0.0 0.0 0.00 0.00 0.00 99 1018.4
20260901085520 69 0.0 0.0 0.00 0.00 0.00 99 1018.4
20260901084540 69 0.0 0.0 0.00 0.00 0.00 99 1018.4
20260901083520 69 0.0 0.0 0.00 0.00 0.00 99 1018.4
20260901082518 69 0.0 0.0 0.00 0.00 0.00 98 1018.2
20260901081520 69 0.0 0.0 0.00 0.00 0.00 98 1018.2
20260901080520 69 0.0 0.0 0.00 0.00 0.00 98 1018.0
20260901075520 69 0.0 0.0 0.00 0.00 0.00 98 1018.0
20260901074520 69 0.0 0.0 0.00 0.00 0.00 98 1018.1
20260901073520 69 0.0 0.0 0.00 0.00 0.00 98 1018.1
20260901072520 69 0.0 0.0 0.00 0.00 0.00 98 1018.1
20260901071520 70 0.0 0.0 0.00 0.00 0.00 98 1018.3
20260901070520 70 0.0 0.0 0.00 0.00 0.00 98 1018.4
20260901065600 70 0.0 0.0 0.00 0.00 0.00 98 1018.6
20260901064520 70 0.0 0.0 0.00 0.00 0.00 98 1018.6
20260901063518 70 0.0 0.0 0.00 0.00 0.00 98 1018.7
20260901062520 71 0.0 0.0 0.00 0.00 0.00 98 1018.8
20260901061537 71 0.0 0.0 0.00 0.00 0.00 98 1018.8
20260901060520 71 0.0 0.0 0.00 0.00 0.00 98 1018.9
20260901055520 71 0.0 0.0 0.00 0.00 0.00 98 1018.9
20260901054520 71 0.0 0.0 0.00 0.00 0.00 98 1018.8
20260901053518 71 0.0 0.0 0.00 0.00 0.00 98 1018.9
20260901052520 71 0.0 0.0 0.00 0.00 0.00 98 1019.0
20260901051520 71 0.0 0.0 0.00 0.00 0.00 97 1019.1
20260901050518 71 0.0 0.0 0.00 0.00 0.00 97 1019.1
20260901045520 71 0.0 0.0 0.00 0.00 0.00 97 1019.1
20260901044520 71 0.0 0.0 0.00 0.00 0.00 97 1019.0
20260901043520 71 0.0 0.0 0.00 0.00 0.00 97 1019.0
20260901042518 72 0.0 0.0 0.00 0.00 0.00 97 1019.0
20260901041520 72 0.0 0.0 0.00 0.00 0.00 97 1019.0
20260901040521 72 0.0 0.0 0.00 0.00 0.00 96 1019.0
20260901035520 72 0.0 0.0 0.00 0.00 0.00 96 1018.9
20260901034520 72 0.0 0.0 0.00 0.00 0.00 96 1018.9
20260901033520 72 0.0 0.0 0.00 0.00 0.00 96 1018.8
20260901032520 72 0.0 0.0 0.00 0.00 0.00 96 1018.8
20260901031518 73 0.0 0.0 0.00 0.00 0.00 95 1018.8
20260901030520 73 0.0 0.0 0.00 0.00 0.00 95 1018.8
20260901025518 73 0.0 0.0 0.00 0.00 0.00 95 1018.7
20260901024520 73 0.0 0.0 0.00 0.00 0.00 95 1018.8
20260901023520 73 0.0 0.0 0.00 0.00 0.00 95 1018.7
20260901022520 73 0.0 0.0 0.00 0.00 0.00 94 1018.6
20260901020520 74 0.0 0.0 0.00 0.00 0.00 94 1018.4
20260901015520 74 0.0 0.0 0.00 0.00 0.00 93 1018.2
20260901014518 74 0.0 0.0 0.00 0.00 0.00 93 1018.1
20260901013520 75 0.0 0.0 0.00 0.00 0.00 92 1018.0
20260901012520 75 0.0 0.0 0.00 0.00 0.00 92 1017.8
20260901011520 76 0.0 0.0 0.00 0.00 0.00 91 1017.8
20260901010520 76 0.0 0.0 0.00 0.00 0.00 90 1017.6
20260901005518 77 0.0 0.0 0.00 0.00 0.00 89 1017.5
20260901004558 78 0.0 0.0 0.00 0.00 0.00 88 1017.5
20260901003520 79 0.0 0.0 0.00 0.00 0.00 86 1017.5
20260901002520 80 0.0 0.0 0.00 0.00 0.00 85 1017.6
20260901001518 81 0.0 0.0 0.00 0.00 0.00 83 1017.6
20260901000518 82 0.0 0.0 0.00 0.00 0.00 81 1017.5
20260831235520 83 0.0 0.0 0.00 0.00 0.00 79 1017.6
20260831234600 85 0.0 0.0 0.00 0.00 0.00 76 1017.7
20260831233518 86 0.0 0.0 0.00 0.00 0.00 73 1017.7
20260831232520 87 0.0 0.0 0.00 0.00 0.00 68 1017.7
20260831231520 88 0.0 0.0 0.00 0.00 0.00 67 1017.7
20260831230520 89 0.0 1.0 0.00 0.00 0.00 65 1017.7
20260831225518 90 0.0 2.0 0.00 0.00 0.00 62 1017.7
20260831224520 91 0.0 0.0 0.00 0.00 0.00 61 1017.9
20260831223520 92 0.0 1.0 0.00 0.00 0.00 61 1017.9
20260831222519 94 0.0 1.0 0.00 0.00 0.00 58 1018.1
20260831221519 95 0.0 0.0 0.00 0.00 0.00 57 1018.3
20260831220520 95 0.0 0.0 0.00 0.00 0.00 57 1018.3
20260831215520 94 0.0 1.0 0.00 0.00 0.00 60 1018.4
20260831214518 94 0.0 0.0 0.00 0.00 0.00 61 1018.5
20260831213520 94 0.0 0.0 0.00 0.00 0.00 61 1018.5
20260831212518 95 0.0 0.0 0.00 0.00 0.00 58 1018.6
20260831211520 96 0.0 0.0 0.00 0.00 0.00 55 1018.6
20260831210518 95 0.0 1.0 0.00 0.00 0.00 54 1018.6
20260831205600 94 0.0 1.0 0.00 0.00 0.00 59 1018.7
20260831204520 93 0.0 1.0 0.00 0.00 0.00 60 1018.8
20260831203518 94 0.0 3.0 0.00 0.00 0.00 52 1018.8
20260831202518 93 0.0 2.0 0.00 0.00 0.00 58 1019.0
20260831201520 92 0.0 1.0 0.00 0.00 0.00 59 1019.0
20260831200520 90 0.0 1.0 0.00 0.00 0.00 62 1019.0
20260831195518 90 0.0 1.0 0.00 0.00 0.00 61 1019.2
20260831194518 91 0.0 0.0 0.00 0.00 0.00 61 1019.3
20260831193520 92 0.0 1.0 0.00 0.00 0.00 60 1019.4
20260831192558 94 0.0 1.0 0.00 0.00 0.00 56 1019.6
20260831191518 94 0.0 2.0 0.00 0.00 0.00 55 1019.6
20260831190518 94 203 1.0 3.0 0.00 0.00 0.00 56 1019.7
20260831185520 93 225 1.0 4.0 0.00 0.00 0.00 58 1019.8
20260831184518 95 0.0 3.0 0.00 0.00 0.00 56 1019.9
20260831183518 94 203 1.0 3.0 0.00 0.00 0.00 57 1020.0
20260831182520 94 315 1.0 3.0 0.00 0.00 0.00 57 1020.2
20260831181520 94 225 1.0 3.0 0.00 0.00 0.00 57 1020.3
20260831180518 93 203 1.0 4.0 0.00 0.00 0.00 57 1020.2
20260831175518 92 248 1.0 3.0 0.00 0.00 0.00 59 1020.2
20260831174520 92 225 2.0 4.0 0.00 0.00 0.00 58 1020.3
20260831173519 93 0.0 3.0 0.00 0.00 0.00 58 1020.3
20260831172520 92 338 1.0 4.0 0.00 0.00 0.00 61 1020.4
20260831171518 91 135 1.0 3.0 0.00 0.00 0.00 61 1020.6
20260831170518 92 203 1.0 4.0 0.00 0.00 0.00 61 1020.7
20260831164520 91 338 1.0 3.0 0.00 0.00 0.00 62 1020.7
20260831163558 90 293 1.0 3.0 0.00 0.00 0.00 63 1020.8
20260831162518 90 225 1.0 4.0 0.00 0.00 0.00 65 1020.9
20260831161520 89 225 1.0 3.0 0.00 0.00 0.00 65 1020.9
20260831160600 89 248 1.0 5.0 0.00 0.00 0.00 67 1020.9
20260831155518 89 248 2.0 7.0 0.00 0.00 0.00 65 1020.9
20260831154520 88 248 1.0 3.0 0.00 0.00 0.00 67 1020.9
20260831153518 87 248 1.0 2.0 0.00 0.00 0.00 71 1020.9
20260831152518 87 315 1.0 3.0 0.00 0.00 0.00 69 1020.8
20260831151520 87 315 1.0 5.0 0.00 0.00 0.00 71 1020.9
20260831150518 86 225 1.0 4.0 0.00 0.00 0.00 72 1021.0
20260831145518 85 0.0 5.0 0.00 0.00 0.00 76 1020.9
20260831144520 84 0.0 1.0 0.00 0.00 0.00 80 1021.0